Location: Unspecified
(0.0000°N, 0.0000°E)
Time: 19:40:09
(UTC+01:00)

Tiros 1 despin weight - Visible Passes

Search period start: 21 December 2014 00:00
Search period end: 31 December 2014 00:00
Orbit: 600 x 649 km, 48.2° (Epoch: 20 December)

Date Brightness Start Highest point End Pass type
(mag) Time Alt. Az. Time Alt. Az. Time Alt. Az.
21 Dec ? 06:14:42 10° SSE 06:17:04 14° SE 06:19:25 10° E visible
21 Dec ? 20:03:55 10° WNW 20:07:47 26° SW 20:11:43 10° S visible
22 Dec ? 06:31:35 10° SSW 06:35:50 38° SE 06:40:00 10° ENE visible
24 Dec ? 05:27:55 10° S 05:31:38 24° SE 05:35:18 10° ENE visible
25 Dec ? 05:45:46 10° SSW 05:50:20 71° SE 05:54:48 10° NE visible
26 Dec ? 04:24:37 10° SSE 04:27:24 16° SE 04:30:08 10° E visible
26 Dec ? 06:04:43 10° WSW 06:08:58 38° NW 06:13:09 10° NNE visible
27 Dec ? 04:47:14 36° E 04:47:14 36° E 04:50:24 10° ENE visible
27 Dec ? 06:25:18 10° W 06:27:39 14° NW 06:29:59 10° NNW visible
28 Dec ? 05:08:39 13° NNE 05:08:39 13° NNE 05:09:14 10° NNE visible
